Location: Navajo
(48.7922°N, 105.0603°W)
Time: 00:04:01
(UTC+00:00)

X-37B - Visible Passes

Search period start: 27 January 2022 00:00
Search period end: 06 February 2022 00:00
Orbit: 334 x 337 km, 45.0° (Epoch: 11 January)

Date Brightness Start Highest point End Pass type
(mag) Time Alt. Az. Time Alt. Az. Time Alt. Az.
28 Jan 2.8 01:14:32 10° S 01:15:36 12° SSE 01:15:56 11° SE visible
29 Jan 2.2 01:33:31 10° SSW 01:35:38 20° SSE 01:35:38 20° SSE visible
30 Jan 2.0 01:53:23 10° SW 01:55:16 26° SSW 01:55:16 26° SSW visible
31 Jan 2.3 00:38:58 10° SSW 00:41:09 20° SSE 00:43:21 10° ESE visible
31 Jan 2.7 02:13:34 10° WSW 02:14:53 22° SW 02:14:53 22° SW visible
01 Feb 1.7 00:58:50 10° SW 01:01:23 30° SSE 01:03:15 15° ESE visible
01 Feb 3.5 02:33:54 10° WSW 02:34:29 14° WSW 02:34:29 14° WSW visible
02 Feb 1.3 01:19:00 10° WSW 01:21:41 37° S 01:22:51 24° SE visible
03 Feb 1.3 01:39:20 10° WSW 01:41:59 36° S 01:42:28 33° SSE visible
04 Feb 2.0 01:59:46 10° WSW 02:02:08 27° SSW 02:02:08 27° SSW visible
05 Feb 1.6 00:44:45 10° WSW 00:47:25 36° S 00:50:04 10° ESE visible
05 Feb 3.0 02:20:28 10° WSW 02:21:52 16° SW 02:21:52 16° SW visible
